K9PHP Weather Reports


Display with metric or nautical units.
time (UTC)temp
F
wind
direction
speed
MPH
gust
MPH
rain 1hr
in
rain 24hr
in
rain mn
in
humidity
%
barometer
mb
20260509054503 55 234 9.0 14.0 0.13 0.80 0.31 92 1006.9
20260509053055 54 247 8.0 14.0 0.14 0.77 0.28 92 1006.7
20260509051522 54 191 3.0 8.0 0.16 0.75 0.26 92 1006.6
20260509050007 54 203 2.0 5.0 0.17 0.71 0.22 92 1006.6
20260509044555 54 236 4.0 8.0 0.18 0.67 0.18 92 1006.8
20260509043029 54 223 3.0 8.0 0.17 0.63 0.14 92 1006.5
20260509041520 54 215 4.0 10.0 0.13 0.59 0.10 91 1006.8
20260509040036 55 198 4.0 8.0 0.10 0.54 0.05 91 1007.0
20260509034509 55 195 2.0 7.0 0.07 0.49 0.49 91 1006.9
20260509033055 55 200 2.0 6.0 0.06 0.46 0.46 91 1006.9
20260509031537 55 182 2.0 7.0 0.10 0.46 0.46 91 1007.0
20260509030017 55 199 0.0 6.0 0.11 0.44 0.44 91 1007.2
20260509024556 55 215 2.0 8.0 0.12 0.42 0.42 91 1007.2
20260509023033 55 236 5.0 7.0 0.11 0.39 0.40 91 1007.6
20260509021514 55 240 6.0 11.0 0.08 0.36 0.36 91 1007.5
20260509020048 55 207 3.0 9.0 0.05 0.32 0.33 91 1007.4
20260509014532 55 236 6.0 10.0 0.04 0.30 0.30 90 1007.3
20260509013008 55 223 4.0 7.0 0.03 0.28 0.28 90 1007.3
20260509011548 55 269 3.0 6.0 0.06 0.28 0.28 90 1007.1
20260509010028 55 284 1.0 3.0 0.09 0.26 0.27 90 1007.0
20260509004510 55 284 3.0 7.0 0.11 0.26 0.26 89 1006.9
20260509003041 55 304 4.0 8.0 0.13 0.25 0.25 89 1006.8
20260509001523 55 298 5.0 11.0 0.11 0.21 0.22 89 1007.1
20260509000010 55 297 4.0 8.0 0.10 0.17 0.17 88 1006.9
20260508234546 56 291 2.0 7.0 0.10 0.15 0.15 87 1007.0
20260508233023 56 308 5.0 8.0 0.09 0.12 0.12 87 1007.1
20260508231510 56 337 0.0 3.0 0.08 0.10 0.10 86 1007.0
20260508230056 56 337 0.0 3.0 0.07 0.07 0.07 85 1007.1
20260508224528 57 335 3.0 6.0 0.05 0.05 0.05 83 1007.2
20260508223014 57 317 6.0 11.0 0.03 0.03 0.03 80 1007.2
20260508221545 58 312 8.0 11.0 0.02 0.02 0.02 77 1007.1
20260508220011 60 299 6.0 10.0 0.00 0.00 0.00 74 1006.8
20260508214614 60 294 5.0 14.0 0.00 0.00 0.00 70 1006.5
20260508213023 61 270 13.0 20.0 0.00 0.00 0.00 65 1006.7
20260508211506 63 265 10.0 14.0 0.00 0.00 0.00 61 1006.6
20260508210037 64 247 4.0 10.0 0.00 0.00 0.00 60 1006.4
20260508204524 64 246 5.0 12.0 0.00 0.00 0.00 59 1006.4
20260508203007 64 248 7.0 14.0 0.00 0.00 0.00 58 1006.5
20260508201547 64 240 12.0 19.0 0.00 0.00 0.00 58 1006.9
20260508200026 64 245 6.0 11.0 0.00 0.00 0.00 60 1007.0
20260508194507 64 256 6.0 11.0 0.00 0.00 0.00 61 1007.3
20260508193046 64 251 5.0 9.0 0.00 0.00 0.00 61 1007.5
20260508191536 64 250 7.0 12.0 0.00 0.00 0.00 60 1007.7
20260508190007 64 248 5.0 15.0 0.00 0.00 0.00 60 1008.0
20260508184544 64 228 8.0 15.0 0.00 0.00 0.00 59 1008.2
20260508183031 64 261 9.0 19.0 0.00 0.00 0.00 58 1008.2
20260508181503 64 234 8.0 18.0 0.00 0.00 0.00 59 1008.5
20260508180042 64 252 11.0 17.0 0.00 0.00 0.00 56 1008.4
20260508174523 64 233 10.0 20.0 0.00 0.00 0.00 58 1008.4
20260508173006 64 248 10.0 19.0 0.00 0.00 0.00 59 1008.7
20260508171545 64 239 14.0 21.0 0.00 0.00 0.00 58 1009.0
20260508170021 64 249 13.0 22.0 0.00 0.00 0.00 60 1009.3
20260508164607 63 259 7.0 14.0 0.00 0.00 0.00 60 1009.6
20260508164501 63 259 6.0 14.0 0.00 0.00 0.00 60 1009.7
20260508163038 62 248 8.0 20.0 0.00 0.00 0.00 61 1010.0
20260508161524 62 248 9.0 17.0 0.00 0.00 0.00 60 1010.1
20260508160040 62 250 8.0 15.0 0.00 0.00 0.00 59 1010.1
20260508154521 62 247 10.0 19.0 0.00 0.00 0.00 60 1010.2
20260508153059 63 257 13.0 25.0 0.00 0.00 0.00 58 1010.2
20260508153001 64 249 14.0 25.0 0.00 0.00 0.00 59 1010.3
20260508151539 64 259 13.0 21.0 0.00 0.00 0.00 59 1010.3
20260508150021 63 269 15.0 25.0 0.00 0.00 0.00 60 1010.3
20260508144551 62 243 16.0 24.0 0.00 0.00 0.00 60 1010.4
20260508143032 61 263 9.0 19.0 0.00 0.00 0.00 62 1010.6
20260508141511 60 238 12.0 18.0 0.00 0.00 0.00 61 1010.7
20260508140047 59 236 10.0 23.0 0.00 0.00 0.00 61 1010.9
20260508134528 58 255 11.0 20.0 0.00 0.00 0.00 62 1011.0
20260508133006 57 257 7.0 16.0 0.00 0.00 0.00 62 1011.1
20260508131545 56 238 11.0 16.0 0.00 0.00 0.00 61 1011.1
20260508130022 54 221 5.0 14.0 0.00 0.00 0.00 63 1011.1
20260508124559 53 223 6.0 12.0 0.00 0.00 0.00 63 1011.3
20260508124500 53 207 6.0 12.0 0.00 0.00 0.00 64 1011.3
20260508123035 52 244 4.0 9.0 0.00 0.00 0.00 66 1011.3
20260508121516 51 229 3.0 7.0 0.00 0.00 0.00 67 1011.3
20260508120055 50 209 1.0 5.0 0.00 0.00 0.00 69 1011.2
20260508114529 49 211 1.0 4.0 0.00 0.00 0.00 71 1011.0
20260508113014 48 213 1.0 4.0 0.00 0.00 0.00 71 1011.0
20260508111603 47 213 1.0 4.0 0.00 0.00 0.00 71 1010.9
20260508110030 47 213 0.0 4.0 0.00 0.00 0.00 70 1010.8
20260508104510 48 221 1.0 3.0 0.00 0.00 0.00 68 1010.9
20260508103045 49 221 1.0 3.0 0.00 0.00 0.00 67 1010.8
20260508101530 49 213 0.0 4.0 0.00 0.00 0.00 65 1010.6
20260508100053 50 208 0.0 6.0 0.00 0.00 0.00 65 1010.8
20260508094526 51 200 3.0 12.0 0.00 0.00 0.00 62 1010.7
20260508093007 51 243 3.0 9.0 0.00 0.00 0.00 64 1010.8
20260508091603 51 253 5.0 11.0 0.00 0.00 0.00 63 1010.8
20260508090026 51 244 4.0 8.0 0.00 0.00 0.00 64 1011.0
20260508084513 51 247 3.0 8.0 0.00 0.00 0.00 65 1011.0
20260508083050 51 258 5.0 11.0 0.00 0.00 0.00 65 1011.3
20260508081534 51 252 5.0 10.0 0.00 0.00 0.00 65 1011.2
20260508080006 51 263 5.0 11.0 0.00 0.00 0.00 64 1011.2
20260508074543 51 267 6.0 12.0 0.00 0.00 0.00 62 1011.2
20260508073023 52 248 8.0 13.0 0.00 0.00 0.00 62 1011.1
20260508071505 51 253 9.0 14.0 0.00 0.00 0.00 62 1011.2
20260508070038 51 228 6.0 13.0 0.00 0.00 0.00 62 1011.3
20260508064526 51 261 7.0 13.0 0.00 0.00 0.00 62 1011.4
20260508063105 51 242 6.0 10.0 0.00 0.00 0.00 63 1011.7
20260508063002 51 244 6.0 10.0 0.00 0.00 0.00 62 1011.7
20260508061544 51 235 3.0 10.0 0.00 0.00 0.00 62 1011.7
20260508060028 50 238 5.0 9.0 0.00 0.00 0.00 62 1011.7